When you browse on this site, cookies collect data to enhance your experience and personalize the content and advertising you see.
Visit our Privacy Policy to learn more. By continuing to use the site, you agree to this use of cookies and data.
EN

Hourly Weather Penza

Today, 7 July, Tuesday

Time Temperature Precipitation Wind Pressure Humidity
00:00 +24°C° 0 mm 1 mps 741 mmHg 69%
01:00 +23°C° 0 mm 1 mps 741 mmHg 69%
02:00 +23°C° 0 mm 1 mps 741 mmHg 70%
03:00 +22°C° 0 mm 1 mps 741 mmHg 62%
04:00 +23°C° 0 mm 1 mps 741 mmHg 63%
05:00 +23°C° 0 mm 1 mps 741 mmHg 64%
06:00 +24°C° 0 mm 1 mps 741 mmHg 66%
07:00 +26°C° 0 mm 1 mps 741 mmHg 59%
08:00 +28°C° 0 mm 1 mps 742 mmHg 53%
09:00 +29°C° 0 mm 1 mps 742 mmHg 47%
10:00 +31°C° 0 mm 2 mps 742 mmHg 44%
11:00 +32°C° 0 mm 2 mps 742 mmHg 42%
12:00 +35°C° 0 mm 2 mps 742 mmHg 40%
13:00 +36°C° 0 mm 3 mps 742 mmHg 40%
14:00 +36°C° 0 mm 3 mps 741 mmHg 41%
15:00 +37°C° 0 mm 3 mps 741 mmHg 41%
16:00 +36°C° 0 mm 3 mps 741 mmHg 46%
17:00 +35°C° 0 mm 3 mps 741 mmHg 51%
18:00 +34°C° 0 mm 3 mps 741 mmHg 56%
19:00 +31°C° 0 mm 2 mps 741 mmHg 58%
20:00 +28°C° 0 mm 1 mps 741 mmHg 60%
21:00 +26°C° 0 mm 1 mps 741 mmHg 62%
22:00 +25°C° 0 mm 2 mps 741 mmHg 63%
23:00 +25°C° 0 mm 2 mps 741 mmHg 64%

Tomorrow, 8 July, Wednesday

Time Temperature Precipitation Wind Pressure Humidity
00:00 +25°C° 0 mm 3 mps 741 mmHg 65%
01:00 +25°C° 0 mm 3 mps 741 mmHg 62%
02:00 +25°C° 0 mm 3 mps 741 mmHg 58%
03:00 +25°C° 0 mm 4 mps 741 mmHg 54%
04:00 +25°C° 0 mm 3 mps 741 mmHg 57%
05:00 +25°C° 0 mm 3 mps 741 mmHg 60%
06:00 +24°C° 0 mm 3 mps 741 mmHg 63%
07:00 +26°C° 0 mm 3 mps 741 mmHg 59%
08:00 +28°C° 0 mm 3 mps 741 mmHg 55%
09:00 +30°C° 0 mm 4 mps 741 mmHg 52%
10:00 +33°C° 0 mm 4 mps 741 mmHg 50%
11:00 +34°C° 0 mm 5 mps 741 mmHg 47%
12:00 +35°C° 0 mm 5 mps 741 mmHg 45%
13:00 +35°C° 0 mm 5 mps 741 mmHg 46%
14:00 +35°C° 0 mm 5 mps 741 mmHg 47%
15:00 +36°C° 0 mm 5 mps 741 mmHg 47%
16:00 +35°C° 0 mm 5 mps 741 mmHg 51%
17:00 +34°C° 0 mm 4 mps 741 mmHg 54%
18:00 +34°C° 0 mm 4 mps 741 mmHg 57%
19:00 +30°C° 0.1 mm 3 mps 741 mmHg 58%
20:00 +28°C° 0.1 mm 3 mps 741 mmHg 60%
21:00 +26°C° 0.1 mm 2 mps 741 mmHg 61%
22:00 +25°C° 0 mm 2 mps 741 mmHg 64%
23:00 +25°C° 0 mm 3 mps 741 mmHg 66%

Day after tomorrow, 9 July, Thursday

Time Temperature Precipitation Wind Pressure Humidity
00:00 +24°C° 0 mm 3 mps 740 mmHg 68%
01:00 +24°C° 0 mm 3 mps 740 mmHg 65%
02:00 +23°C° 0 mm 4 mps 740 mmHg 63%
03:00 +25°C° 0 mm 4 mps 740 mmHg 60%
04:00 +25°C° 0 mm 4 mps 740 mmHg 63%
05:00 +25°C° 0 mm 4 mps 740 mmHg 66%
06:00 +25°C° 0 mm 4 mps 740 mmHg 69%
07:00 +26°C° 0 mm 4 mps 740 mmHg 68%
08:00 +26°C° 0 mm 3 mps 740 mmHg 67%
09:00 +27°C° 0 mm 3 mps 740 mmHg 66%
10:00 +27°C° 0 mm 4 mps 740 mmHg 63%
11:00 +28°C° 0 mm 5 mps 740 mmHg 60%
12:00 +28°C° 0 mm 6 mps 740 mmHg 58%
13:00 +28°C° 0 mm 6 mps 740 mmHg 59%
14:00 +27°C° 0 mm 6 mps 740 mmHg 60%
15:00 +27°C° 0 mm 6 mps 740 mmHg 61%
16:00 +26°C° 0.1 mm 4 mps 740 mmHg 65%
17:00 +26°C° 0.1 mm 3 mps 740 mmHg 70%
18:00 +25°C° 0.1 mm 1 mps 741 mmHg 74%
19:00 +24°C° 0.7 mm 2 mps 741 mmHg 79%
20:00 +22°C° 0.7 mm 3 mps 741 mmHg 85%
21:00 +21°C° 0.7 mm 3 mps 742 mmHg 91%
22:00 +20°C° 0.1 mm 4 mps 742 mmHg 92%
23:00 +19°C° 0.1 mm 4 mps 742 mmHg 93%

10 July, Friday

Time Temperature Precipitation Wind Pressure Humidity
00:00 +17°C° 0.1 mm 5 mps 743 mmHg 93%
01:00 +17°C° 0 mm 5 mps 743 mmHg 92%
02:00 +16°C° 0 mm 5 mps 743 mmHg 91%
03:00 +16°C° 0 mm 5 mps 744 mmHg 90%
04:00 +17°C° 0 mm 4 mps 744 mmHg 89%
05:00 +17°C° 0 mm 4 mps 745 mmHg 88%
06:00 +16°C° 0 mm 3 mps 745 mmHg 88%
07:00 +18°C° 0 mm 4 mps 745 mmHg 81%
08:00 +19°C° 0 mm 4 mps 745 mmHg 75%
09:00 +20°C° 0 mm 4 mps 746 mmHg 69%
10:00 +21°C° 0 mm 4 mps 746 mmHg 63%
11:00 +22°C° 0 mm 5 mps 746 mmHg 58%
12:00 +25°C° 0 mm 5 mps 747 mmHg 53%
13:00 +25°C° 0 mm 5 mps 747 mmHg 53%
14:00 +25°C° 0 mm 5 mps 747 mmHg 54%
15:00 +25°C° 0 mm 5 mps 747 mmHg 55%
16:00 +25°C° 0 mm 4 mps 747 mmHg 58%
17:00 +25°C° 0 mm 4 mps 747 mmHg 62%
18:00 +24°C° 0 mm 3 mps 747 mmHg 65%
19:00 +22°C° 0 mm 3 mps 747 mmHg 70%
20:00 +20°C° 0 mm 3 mps 748 mmHg 75%
21:00 +19°C° 0 mm 2 mps 748 mmHg 80%
22:00 +18°C° 0 mm 2 mps 748 mmHg 82%
23:00 +17°C° 0 mm 2 mps 749 mmHg 83%

11 July, Saturday

Time Temperature Precipitation Wind Pressure Humidity
00:00 +17°C° 0 mm 2 mps 749 mmHg 85%
01:00 +16°C° 0 mm 2 mps 749 mmHg 86%
02:00 +16°C° 0 mm 2 mps 749 mmHg 88%
03:00 +16°C° 0 mm 2 mps 749 mmHg 89%
04:00 +16°C° 0 mm 2 mps 749 mmHg 85%
05:00 +17°C° 0 mm 3 mps 750 mmHg 82%
06:00 +18°C° 0 mm 3 mps 750 mmHg 78%
07:00 +19°C° 0 mm 3 mps 750 mmHg 71%
08:00 +21°C° 0 mm 4 mps 750 mmHg 65%
09:00 +22°C° 0 mm 4 mps 750 mmHg 59%
10:00 +23°C° 0 mm 4 mps 750 mmHg 56%
11:00 +25°C° 0 mm 4 mps 750 mmHg 53%
12:00 +26°C° 0 mm 4 mps 750 mmHg 50%
13:00 +26°C° 0 mm 4 mps 750 mmHg 49%
14:00 +27°C° 0 mm 4 mps 749 mmHg 49%
15:00 +27°C° 0 mm 4 mps 749 mmHg 48%
16:00 +26°C° 0 mm 4 mps 749 mmHg 52%
17:00 +26°C° 0 mm 3 mps 749 mmHg 57%
18:00 +25°C° 0 mm 3 mps 749 mmHg 61%
19:00 +22°C° 0 mm 3 mps 749 mmHg 65%
20:00 +20°C° 0 mm 3 mps 749 mmHg 70%
21:00 +18°C° 0 mm 3 mps 749 mmHg 74%
22:00 +18°C° 0 mm 2 mps 749 mmHg 77%
23:00 +17°C° 0 mm 2 mps 748 mmHg 80%

12 July, Sunday

Time Temperature Precipitation Wind Pressure Humidity
00:00 +16°C° 0 mm 2 mps 748 mmHg 82%
01:00 +16°C° 0 mm 2 mps 748 mmHg 82%
02:00 +15°C° 0 mm 2 mps 748 mmHg 82%
03:00 +15°C° 0 mm 2 mps 748 mmHg 81%
04:00 +14°C° 0 mm 3 mps 748 mmHg 80%
05:00 +16°C° 0 mm 3 mps 748 mmHg 79%
06:00 +17°C° 0 mm 3 mps 748 mmHg 78%
07:00 +19°C° 0 mm 4 mps 747 mmHg 73%
08:00 +21°C° 0 mm 4 mps 747 mmHg 67%
09:00 +23°C° 0 mm 4 mps 747 mmHg 62%
10:00 +25°C° 0 mm 4 mps 747 mmHg 58%
11:00 +26°C° 0 mm 4 mps 747 mmHg 54%
12:00 +27°C° 0 mm 4 mps 746 mmHg 51%
13:00 +27°C° 0 mm 4 mps 746 mmHg 50%
14:00 +28°C° 0 mm 4 mps 746 mmHg 49%
15:00 +28°C° 0 mm 4 mps 745 mmHg 49%
16:00 +27°C° 0 mm 4 mps 745 mmHg 52%
17:00 +27°C° 0 mm 3 mps 744 mmHg 56%
18:00 +26°C° 0 mm 3 mps 744 mmHg 59%
19:00 +25°C° 0 mm 3 mps 744 mmHg 65%
20:00 +22°C° 0 mm 3 mps 744 mmHg 70%
21:00 +20°C° 0 mm 3 mps 744 mmHg 76%
22:00 +19°C° 0 mm 3 mps 743 mmHg 78%
23:00 +18°C° 0 mm 3 mps 743 mmHg 80%
Show more